Time,TemperatureF,DewpointF,PressureIn,WindDirection,WindDirectionDegrees,WindSpeedMPH,WindSpeedGustMPH,Humidity,HourlyPrecipIn,Conditions,Clouds,dailyrainin,SoftwareType,DateUTC
2013-08-16 01:21:00,46.0,29.0,30.24,NNE,17,1.0,-999.0,52,-99.99,,,-99.99,,2013-08-16 07:21:00,
2013-08-16 02:11:00,45.0,30.0,30.24,North,355,1.0,-999.0,55,-99.99,,,-99.99,,2013-08-16 08:11:00,
2013-08-16 02:21:00,46.0,30.0,30.24,North,9,2.0,-999.0,53,-99.99,,,-99.99,,2013-08-16 08:21:00,
2013-08-16 02:52:00,45.0,29.0,30.24,NNE,17,0.0,-999.0,54,-99.99,,,-99.99,,2013-08-16 08:52:00,
2013-08-16 03:21:00,43.0,29.0,30.24,NE,44,0.0,-999.0,58,-99.99,,,-99.99,,2013-08-16 09:21:00,
2013-08-16 03:53:00,42.0,28.0,30.25,NE,44,1.0,-999.0,58,-99.99,,,-99.99,,2013-08-16 09:53:00,
2013-08-16 04:23:00,42.0,28.0,30.26,North,355,0.0,-999.0,57,-99.99,,,-99.99,,2013-08-16 10:23:00,
2013-08-16 04:52:00,39.0,27.0,30.27,ENE,59,0.0,-999.0,63,-99.99,,,-99.99,,2013-08-16 10:52:00,
2013-08-16 05:21:00,39.0,28.0,30.27,NNE,23,0.0,-999.0,65,-99.99,,,-99.99,,2013-08-16 11:21:00,
2013-08-16 05:52:00,39.0,28.0,30.27,NNE,26,0.0,-999.0,64,-99.99,,,-99.99,,2013-08-16 11:52:00,
2013-08-16 06:12:00,38.0,27.0,30.28,NNE,26,1.0,-999.0,63,-99.99,,,-99.99,,2013-08-16 12:12:00,
2013-08-16 06:21:00,38.0,28.0,30.28,NNE,26,1.0,-999.0,68,-99.99,,,-99.99,,2013-08-16 12:21:00,
2013-08-16 06:52:00,37.0,27.0,30.30,NNE,26,1.0,-999.0,67,-99.99,,,-99.99,,2013-08-16 12:52:00,
2013-08-16 07:11:00,35.0,27.0,30.30,NNE,26,0.0,-999.0,73,-99.99,,,-99.99,,2013-08-16 13:11:00,
2013-08-16 07:21:00,35.0,28.0,30.30,NNE,26,0.0,-999.0,74,-99.99,,,-99.99,,2013-08-16 13:21:00,
2013-08-16 07:53:00,39.0,31.0,30.31,NNE,26,0.0,-999.0,72,-99.99,,,-99.99,,2013-08-16 13:53:00,
2013-08-16 08:21:00,47.0,32.0,30.31,NNW,331,1.0,-999.0,56,-99.99,,,-99.99,,2013-08-16 14:21:00,
2013-08-16 08:41:00,49.0,33.0,30.31,NNW,330,2.0,-999.0,53,-99.99,,,-99.99,,2013-08-16 14:41:00,
2013-08-16 10:23:00,61.0,33.0,30.32,SSW,204,1.0,-999.0,35,-99.99,,,-99.99,,2013-08-16 16:23:00,
2013-08-16 10:57:00,65.0,35.0,30.31,South,177,1.0,-999.0,33,-99.99,,,-99.99,,2013-08-16 16:57:00,
2013-08-16 11:28:00,67.0,34.0,30.30,South,183,2.0,-999.0,29,-99.99,,,-99.99,,2013-08-16 17:28:00,
2013-08-16 12:00:00,70.0,35.0,30.29,ESE,113,1.0,-999.0,28,-99.99,,,-99.99,,2013-08-16 18:00:00,
2013-08-16 12:27:00,73.0,38.0,30.27,WSW,252,2.0,-999.0,28,-99.99,,,-99.99,,2013-08-16 18:27:00,
2013-08-16 12:50:00,-999.0,-99.9,30.28,SSW,211,3.0,-999.0,22,-99.99,,,-99.99,,2013-08-16 18:50:00,
2013-08-16 12:55:00,77.0,35.0,30.28,SSW,211,3.0,-999.0,22,-99.99,,,-99.99,,2013-08-16 18:55:00,
2013-08-16 13:14:00,78.0,36.0,30.27,SSW,213,3.0,-999.0,22,-99.99,,,-99.99,,2013-08-16 19:14:00,
2013-08-16 13:25:00,80.0,38.0,30.26,West,275,2.0,-999.0,22,-99.99,,,-99.99,,2013-08-16 19:25:00,
2013-08-16 13:55:00,81.0,37.0,30.24,WSW,252,5.0,-999.0,21,-99.99,,,-99.99,,2013-08-16 19:55:00,
2013-08-16 14:11:00,83.0,36.0,30.23,WSW,251,4.0,-999.0,19,-99.99,,,-99.99,,2013-08-16 20:11:00,
2013-08-16 14:23:00,85.0,35.0,30.23,SSW,196,2.0,-999.0,17,-99.99,,,-99.99,,2013-08-16 20:23:00,
2013-08-16 14:52:00,88.0,29.0,30.22,South,180,3.0,-999.0,12,-99.99,,,-99.99,,2013-08-16 20:52:00,
2013-08-16 15:25:00,90.0,26.0,30.21,South,188,7.0,-999.0,10,-99.99,,,-99.99,,2013-08-16 21:25:00,
2013-08-16 15:40:00,-999.0,-99.9,30.20,South,169,8.0,-999.0,-999,-99.99,,,-99.99,,2013-08-16 21:40:00,
2013-08-16 15:53:00,92.0,19.0,30.19,South,175,8.0,-999.0,7,-99.99,,,-99.99,,2013-08-16 21:53:00,
2013-08-16 16:24:00,87.0,24.0,30.19,SW,221,6.0,-999.0,10,-99.99,,,-99.99,,2013-08-16 22:24:00,
2013-08-16 16:52:00,84.0,30.0,30.19,SW,215,0.0,-999.0,14,-99.99,,,-99.99,,2013-08-16 22:52:00,
2013-08-16 17:23:00,86.0,27.0,30.18,WSW,238,0.0,-999.0,12,-99.99,,,-99.99,,2013-08-16 23:23:00,
2013-08-16 17:52:00,84.0,30.0,30.19,SSW,209,1.0,-999.0,14,-99.99,,,-99.99,,2013-08-16 23:52:00,
2013-08-16 18:21:00,86.0,29.0,30.18,WSW,251,2.0,-999.0,13,-99.99,,,-99.99,,2013-08-17 00:21:00,
2013-08-16 18:41:00,87.0,26.0,30.18,West,259,5.0,-999.0,11,-99.99,,,-99.99,,2013-08-17 00:41:00,
2013-08-16 18:52:00,87.0,26.0,30.18,WSW,257,6.0,-999.0,11,-99.99,,,-99.99,,2013-08-17 00:52:00,
2013-08-16 19:11:00,86.0,25.0,30.18,WSW,245,5.0,-999.0,11,-99.99,,,-99.99,,2013-08-17 01:11:00,
2013-08-16 19:21:00,85.0,27.0,30.17,WSW,244,4.0,-999.0,12,-99.99,,,-99.99,,2013-08-17 01:21:00,
2013-08-16 19:41:00,84.0,31.0,30.18,SW,233,1.0,-999.0,15,-99.99,,,-99.99,,2013-08-17 01:41:00,
2013-08-16 19:52:00,82.0,28.0,30.18,WSW,252,3.0,-999.0,14,-99.99,,,-99.99,,2013-08-17 01:52:00,
2013-08-16 20:21:00,77.0,30.0,30.19,WSW,254,1.0,-999.0,18,-99.99,,,-99.99,,2013-08-17 02:21:00,
2013-08-16 20:42:00,75.0,27.0,30.19,WSW,252,0.0,-999.0,17,-99.99,,,-99.99,,2013-08-17 02:42:00,
2013-08-16 20:52:00,74.0,28.0,30.20,WNW,300,0.0,-999.0,18,-99.99,,,-99.99,,2013-08-17 02:52:00,
2013-08-16 21:21:00,69.0,27.0,30.21,NNE,30,1.0,-999.0,21,-99.99,,,-99.99,,2013-08-17 03:21:00,
2013-08-16 22:23:00,63.0,28.0,30.23,SSE,154,1.0,-999.0,26,-99.99,,,-99.99,,2013-08-17 04:23:00,
2013-08-16 22:53:00,62.0,28.0,30.23,South,184,2.0,-999.0,27,-99.99,,,-99.99,,2013-08-17 04:53:00,
2013-08-16 23:12:00,61.0,26.0,30.23,South,175,0.0,-999.0,26,-99.99,,,-99.99,,2013-08-17 05:12:00,
2013-08-16 23:22:00,56.0,27.0,30.24,East,101,0.0,-999.0,32,-99.99,,,-99.99,,2013-08-17 05:22:00,
2013-08-16 23:52:00,56.0,32.0,30.23,NNE,17,1.0,-999.0,40,-99.99,,,-99.99,,2013-08-17 05:52:00,